DateTime,F1_A11,F1_S11,BsB_S11,BsG_S11,BsR_S11,BbsB_S11,BbsG_S11,BbsR_S11,BaB_A11,BaG_A11,BaR_A11,T_S11,U_S11,P_S11,T1_A11
2016-04-19T00:00:00Z,0000380,21000600,,,,,,,,,,25.2,00.0,0653.0,34.7
2016-04-19T00:01:00Z,0000380,21000600,,,,,,,,,,25.2,00.0,0653.0,34.7
2016-04-19T00:02:00Z,0000380,21000600,,,,,,,,,,25.2,00.0,0653.0,34.7
2016-04-19T00:03:00Z,0000380,61000600,,,,,,,,,,25.2,00.0,0653.0,34.7
2016-04-19T00:04:00Z,0000380,41000600,0004.52,0004.34,0002.98,0000.69,0000.40,0000.40,0000.17,0000.07,0000.08,25.3,00.0,0653.7,34.7
2016-04-19T00:05:00Z,0000380,01000600,0004.41,0002.85,0002.79,-000.02,0000.75,0000.21,0000.21,0000.38,0000.32,25.3,00.0,0653.8,34.7
2016-04-19T00:06:00Z,0000380,01000600,0004.17,0003.89,0002.20,0000.02,0001.14,0000.24,0000.22,-000.02,0000.13,25.3,00.0,0653.8,34.7
2016-04-19T00:07:00Z,0000380,01000600,0005.17,0003.52,0002.32,0000.97,0000.24,0000.06,0000.14,0000.23,-000.11,25.3,00.0,0653.8,34.7
2016-04-19T00:08:00Z,0000380,01000600,0004.95,0003.19,0002.25,-000.32,0000.19,0000.18,0000.28,0000.15,0000.26,25.3,00.0,0653.7,34.7
2016-04-19T00:09:00Z,0000380,01000600,0003.59,0002.78,0002.49,0000.11,0000.53,0000.02,0000.24,0000.25,0000.18,25.2,00.0,0653.8,34.7
2016-04-19T00:10:00Z,0000380,01000600,0004.08,0003.29,0002.56,-000.06,0000.61,0000.48,0000.19,0000.29,0000.24,25.2,00.0,0653.8,34.7
2016-04-19T00:11:00Z,0000380,01000600,0005.04,0002.91,0002.27,0000.18,0000.05,0000.44,-000.02,-000.08,0000.05,25.2,00.0,0653.8,34.7
2016-04-19T00:12:00Z,0000380,01000600,0004.43,0003.15,0002.44,0000.03,0000.30,0000.21,0000.29,0000.20,0000.31,25.3,00.0,0653.8,34.7
2016-04-19T00:13:00Z,0000380,01000600,0004.90,0002.89,0002.83,0000.80,0000.45,0000.55,0000.20,0000.26,0000.26,25.2,00.0,0653.8,34.7
2016-04-19T00:14:00Z,0000380,01000600,0004.41,0003.74,0002.99,0000.58,0000.50,0000.44,0000.17,0000.18,-000.06,25.2,00.0,0653.8,34.7
2016-04-19T00:15:00Z,0000380,01000600,0004.70,0003.18,0002.82,-000.39,-000.02,0000.11,0000.32,0000.24,0000.18,25.2,00.0,0653.7,34.6
2016-04-19T00:16:00Z,0000380,01000600,0005.01,0003.28,0002.49,0000.29,0000.51,0000.42,0000.18,0000.25,0000.16,25.2,00.0,0653.8,34.6
2016-04-19T00:17:00Z,0000380,01000600,0004.38,0003.62,0002.74,0000.55,0000.19,0000.34,0000.28,0000.15,0000.31,25.2,00.0,0653.7,34.6
2016-04-19T00:18:00Z,0000380,01000600,0003.92,0003.16,0002.31,-000.08,0000.93,0000.58,0000.13,0000.30,0000.07,25.2,00.0,0653.7,34.6
2016-04-19T00:19:00Z,0000380,01000600,0003.53,0003.13,0002.31,0000.56,-000.03,0000.08,0000.18,0000.04,-000.14,25.2,00.0,0653.7,34.6
2016-04-19T00:20:00Z,0000380,01000600,0004.86,0003.54,0002.71,0000.21,0000.34,0000.52,0000.18,0000.24,0000.28,25.2,00.0,0653.7,34.6
2016-04-19T00:21:00Z,0000380,01000600,0004.33,0003.22,0002.36,0000.16,0000.67,0000.52,0000.27,0000.18,0000.18,25.2,00.0,0653.7,34.6
2016-04-19T00:22:00Z,0000380,01000600,0004.54,0002.94,0002.67,-000.03,0000.32,0000.35,0000.21,0000.22,0000.34,25.2,00.0,0653.7,34.6
2016-04-19T00:23:00Z,0000380,01000600,0003.86,0003.05,0002.93,0000.93,0000.13,0000.66,0000.22,0000.13,-000.11,25.2,00.0,0653.7,34.6
2016-04-19T00:24:00Z,0000380,01000600,0004.20,0003.48,0003.03,0000.43,0000.75,0000.47,0000.18,-000.00,-000.03,25.2,00.0,0653.7,34.6
2016-04-19T00:25:00Z,0000380,01000600,0003.85,0002.80,0002.42,0000.29,0000.19,0000.81,0000.29,0000.28,0000.21,25.2,00.0,0653.7,34.6
2016-04-19T00:26:00Z,0000380,01000600,0004.55,0004.15,0002.32,0000.34,0000.11,0000.19,0000.13,0000.23,-000.01,25.2,00.0,0653.7,34.6
2016-04-19T00:27:00Z,0000380,01000600,0003.47,0002.78,0002.10,0000.42,0000.03,0000.08,0000.21,0000.28,0000.30,25.2,00.0,0653.7,34.6
2016-04-19T00:28:00Z,0000380,01000600,0004.78,0003.17,0002.11,-000.05,0000.42,-000.08,0000.34,0000.12,0000.46,25.2,00.0,0653.7,34.6
2016-04-19T00:29:00Z,0000380,01000600,0003.23,0002.99,0002.47,0000.08,0000.19,0000.84,0000.22,0000.16,-000.13,25.2,00.0,0653.7,34.6
2016-04-19T00:30:00Z,0000380,01000600,0004.03,0002.67,0002.92,0000.32,0000.08,0000.66,0000.16,0000.12,0000.13,25.2,00.0,0653.7,34.6
2016-04-19T00:31:00Z,0000380,01000600,0003.41,0002.75,0002.40,0000.55,0000.14,0000.40,0000.26,0000.16,-000.00,25.2,00.0,0653.7,34.6
2016-04-19T00:32:00Z,0000380,01000600,0003.64,0003.18,0002.48,-000.42,0000.19,0000.45,0000.25,0000.26,0000.15,25.2,00.0,0653.7,34.6
2016-04-19T00:33:00Z,0000380,01000600,0004.35,0002.77,0002.32,0000.71,0000.87,0000.29,0000.00,0000.14,0000.34,25.2,00.0,0653.7,34.6
2016-04-19T00:34:00Z,0000380,01000600,0003.55,0002.87,0002.39,-000.14,0000.48,0000.40,0000.14,0000.23,0000.06,25.2,00.0,0653.7,34.6
2016-04-19T00:35:00Z,0000380,01000600,0002.39,0003.71,0002.81,0000.11,0000.56,0000.32,0000.38,0000.09,0000.17,25.2,00.0,0653.7,34.6
2016-04-19T00:36:00Z,0000380,01000600,0003.07,0003.12,0002.69,0000.64,-000.05,0000.53,0000.22,0000.34,0000.18,25.2,00.0,0653.7,34.6
2016-04-19T00:37:00Z,0000380,01000600,0004.27,0002.42,0002.25,0000.84,0000.00,0000.03,0000.37,-000.03,-000.13,25.2,00.0,0653.7,34.6
2016-04-19T00:38:00Z,0000380,01000600,0004.54,0002.95,0002.49,0000.66,-000.05,0000.11,0000.05,0000.19,0000.33,25.2,00.0,0653.7,34.6
2016-04-19T00:39:00Z,0000380,01000600,0004.50,0003.60,0001.64,0000.18,-000.29,0000.45,0000.43,0000.19,0000.31,25.2,00.0,0653.7,34.6
2016-04-19T00:40:00Z,0000380,01000600,0002.67,0003.39,0002.82,-000.16,0000.13,0000.53,-000.01,0000.30,-000.01,25.2,00.0,0653.7,34.6
2016-04-19T00:41:00Z,0000380,01000600,0003.46,0002.97,0002.01,-000.10,-000.19,0000.37,0000.39,0000.18,0000.25,25.2,00.0,0653.7,34.6
2016-04-19T00:42:00Z,0000380,01000600,0004.28,0003.17,0002.55,-000.08,0000.46,0000.48,0000.14,0000.27,-000.22,25.2,00.0,0653.8,34.6
2016-04-19T00:43:00Z,0000380,01000600,0004.27,0003.32,0002.49,0000.21,0000.32,0000.39,0000.13,-000.02,0000.40,25.2,00.0,0653.8,34.6
2016-04-19T00:44:00Z,0000380,01000600,0003.75,0001.98,0002.28,-000.05,0000.34,0000.47,0000.05,0000.28,-000.10,25.2,00.0,0653.8,34.6
2016-04-19T00:45:00Z,0000380,01000600,0002.99,0003.44,0002.32,-000.10,0000.32,0000.24,0000.34,0000.14,0000.34,25.2,00.0,0653.8,34.6
2016-04-19T00:46:00Z,0000380,01000600,0003.36,0002.68,0002.35,0000.29,0000.08,0000.06,0000.17,0000.19,-000.04,25.2,00.0,0653.7,34.6
2016-04-19T00:47:00Z,0000380,01000600,0004.68,0003.13,0002.45,-000.35,0000.45,0000.15,0000.18,0000.19,0000.31,25.2,00.0,0653.8,34.6
2016-04-19T00:48:00Z,0000380,01000600,0004.45,0003.37,0002.31,0000.29,0000.19,0000.18,0000.12,0000.08,0000.29,25.2,00.0,0653.8,34.6
2016-04-19T00:49:00Z,0000380,01000600,0004.20,0003.15,0002.00,-000.29,0000.53,0000.32,0000.36,0000.07,0000.03,25.2,00.0,0653.7,34.6
2016-04-19T00:50:00Z,0000380,01000600,0002.77,0002.57,0001.88,0000.00,-000.13,0000.10,0000.15,0000.32,-000.23,25.2,00.0,0653.7,34.6
2016-04-19T00:51:00Z,0000380,01000600,0003.51,0003.28,0002.05,-000.03,0000.67,0000.13,0000.12,0000.11,0000.11,25.1,00.0,0653.8,34.6
2016-04-19T00:52:00Z,0000380,01000600,0004.90,0003.27,0002.64,0000.95,0000.21,0000.23,0000.22,0000.20,0000.29,25.1,00.0,0653.8,34.6
2016-04-19T00:53:00Z,0000380,01000600,0003.99,0002.56,0002.72,0001.19,-000.45,0000.76,0000.15,0000.10,0000.19,25.1,00.0,0653.8,34.6
2016-04-19T00:54:00Z,0000380,01000600,0004.11,0002.30,0002.79,-000.23,0000.08,0000.27,0000.17,0000.23,0000.18,25.1,00.0,0653.7,34.6
2016-04-19T00:55:00Z,0000380,01000600,0003.73,0002.55,0002.67,0000.31,0000.32,0000.26,0000.23,0000.11,0000.10,25.1,00.0,0653.7,34.6
2016-04-19T00:56:00Z,0000380,01000600,0003.87,0002.77,0001.67,-000.02,0000.14,0000.05,0000.17,0000.04,-000.06,25.1,00.0,0653.8,34.6
2016-04-19T00:57:00Z,0000380,41000600,,,,,,,,,,,,0653.7,34.6
2016-04-19T00:58:00Z,0000380,61000600,,,,,,,,,,25.0,00.0,0653.0,34.6
2016-04-19T00:59:00Z,0000380,21000600,,,,,,,,,,25.0,00.0,0653.0,34.6
2016-04-19T01:00:00Z,0000380,21000600,,,,,,,,,,25.0,00.0,0653.0,34.6
2016-04-19T01:01:00Z,0000380,21000600,,,,,,,,,,25.0,00.0,0653.0,34.6
2016-04-19T01:02:00Z,0000380,21000600,,,,,,,,,,25.0,00.0,0653.0,34.6
2016-04-19T01:03:00Z,0000380,61000600,,,,,,,,,,25.0,00.0,0653.0,34.6
2016-04-19T01:04:00Z,0000380,41000600,0003.50,0002.57,0001.67,0000.26,0000.61,0000.27,0000.15,-000.05,0000.37,25.1,00.0,0653.7,34.6
2016-04-19T01:05:00Z,0000380,01000600,0001.96,0002.95,0002.09,0000.14,-000.05,0000.34,0000.27,0000.22,-000.09,25.1,00.0,0653.8,34.6
2016-04-19T01:06:00Z,0000380,01000600,0003.46,0001.84,0001.60,0000.11,-000.26,-000.06,0000.07,0000.19,0000.04,25.1,00.0,0653.8,34.6
2016-04-19T01:07:00Z,0000380,01000600,0003.42,0001.60,0001.39,0000.11,0000.02,0000.10,0000.33,0000.21,0000.06,25.1,00.0,0653.8,34.6
2016-04-19T01:08:00Z,0000380,01000600,0004.06,0001.88,0002.19,-000.03,-000.34,0000.48,-000.01,0000.17,0000.08,25.1,00.0,0653.7,34.6
2016-04-19T01:09:00Z,0000380,01000600,0003.31,0002.03,0002.12,0000.43,0000.10,-000.03,0000.33,0000.31,0000.33,25.1,00.0,0653.7,34.6
2016-04-19T01:10:00Z,0000380,01000600,0001.92,0002.87,0002.60,0000.32,0000.32,0000.60,0000.05,-000.07,0000.16,25.1,00.0,0653.7,34.6
2016-04-19T01:11:00Z,0000380,01000600,0002.68,0003.50,0001.66,-000.31,0000.22,0000.02,0000.24,0000.18,-000.01,25.1,00.0,0653.7,34.6
2016-04-19T01:12:00Z,0000380,01000600,0003.70,0003.09,0001.42,0000.27,-000.29,0000.16,0000.07,-000.08,-000.06,25.1,00.0,0653.7,34.6
2016-04-19T01:13:00Z,0000380,01000600,0003.87,0002.37,0001.38,0000.71,-000.05,0000.11,0000.18,0000.38,0000.23,25.1,00.0,0653.7,34.6
2016-04-19T01:14:00Z,0000380,01000600,0002.46,0001.75,0001.39,0000.40,0000.16,0000.44,0000.32,0000.29,0000.08,25.1,00.0,0653.7,34.6
2016-04-19T01:15:00Z,0000380,01000600,0003.15,0001.96,0001.86,-000.40,-000.13,0000.11,0000.10,-000.09,0000.39,25.1,00.0,0653.7,34.7
2016-04-19T01:16:00Z,0000380,01000600,0003.14,0002.10,0001.51,0000.63,0000.03,0000.56,0000.05,0000.20,0000.08,25.2,00.0,0653.7,34.7
2016-04-19T01:17:00Z,0000380,01000600,0003.38,0002.34,0001.69,-000.06,-000.51,0000.05,0000.26,0000.11,-000.23,25.2,00.0,0653.7,34.7
2016-04-19T01:18:00Z,0000380,01000600,0003.62,0002.35,0000.87,0000.31,-000.29,-000.23,0000.21,0000.17,0000.42,25.1,00.0,0653.7,34.7
2016-04-19T01:19:00Z,0000380,01000600,0003.28,0001.74,0001.97,0000.13,-000.11,0000.37,0000.09,0000.08,0000.02,25.2,00.0,0653.7,34.7
2016-04-19T01:20:00Z,0000380,01000600,0003.63,0002.47,0001.48,-000.13,0000.48,-000.05,0000.08,0000.20,-000.15,25.1,00.0,0653.7,34.7
2016-04-19T01:21:00Z,0000380,01000600,0003.05,0002.19,0001.61,0001.35,0000.03,0000.05,0000.33,0000.16,0000.38,25.2,00.0,0653.7,34.7
2016-04-19T01:22:00Z,0000380,01000600,0003.42,0002.53,0001.53,0000.82,0000.45,-000.05,-000.02,0000.18,0000.16,25.2,00.0,0653.7,34.7
2016-04-19T01:23:00Z,0000380,01000600,0002.86,0002.53,0000.86,-000.23,-000.59,0000.21,0000.17,0000.08,0000.14,25.2,00.0,0653.7,34.7
2016-04-19T01:24:00Z,0000380,01000600,0003.64,0002.80,0001.38,-000.42,0000.18,0000.18,0000.21,0000.07,-000.03,25.2,00.0,0653.7,34.7
2016-04-19T01:25:00Z,0000380,01000600,0003.99,0001.97,0001.32,0001.05,0000.18,-000.03,0000.10,0000.07,-000.13,25.2,00.0,0653.7,34.7
2016-04-19T01:26:00Z,0000380,01000600,0002.01,0002.12,0001.68,-000.52,0000.48,-000.15,0000.06,0000.15,0000.33,25.2,00.0,0653.7,34.7
2016-04-19T01:27:00Z,0000380,01000600,0002.75,0001.56,0001.71,0000.24,-000.11,0000.55,0000.26,0000.09,0000.14,25.2,00.0,0653.7,34.7
2016-04-19T01:28:00Z,0000380,01000600,0003.13,0001.91,0001.52,-000.05,-000.06,0000.44,0000.04,0000.18,0000.30,25.2,00.0,0653.8,34.7
2016-04-19T01:29:00Z,0000380,01000600,0002.55,0002.29,0001.21,-000.31,0000.30,0000.23,0000.15,0000.05,-000.09,25.2,00.0,0653.8,34.7
2016-04-19T01:30:00Z,0000380,01000600,0003.41,0002.36,0001.42,0001.09,0000.19,0000.85,0000.07,0000.17,0000.02,25.2,00.0,0653.8,34.7
2016-04-19T01:31:00Z,0000380,01000600,0002.91,0002.70,0001.22,-000.55,-000.29,0000.00,0000.17,0000.34,0000.29,25.2,00.0,0653.8,34.7
2016-04-19T01:32:00Z,0000380,01000600,0003.00,0002.18,0000.71,0000.53,-000.61,0000.05,0000.04,0000.01,0000.02,25.2,00.0,0653.8,34.7
2016-04-19T01:33:00Z,0000380,01000600,0002.36,0001.83,0001.19,0000.61,-000.16,0000.39,0000.27,0000.01,0000.08,25.2,00.0,0653.8,34.7
2016-04-19T01:34:00Z,0000380,01000600,0003.16,0002.62,0000.61,0000.10,-000.35,-000.15,0000.10,0000.04,-000.09,25.2,00.0,0653.8,34.7
2016-04-19T01:35:00Z,0000380,01000600,0002.79,0001.53,0001.33,0000.03,0000.08,-000.03,0000.10,0000.34,0000.44,25.2,00.0,0653.8,34.7
2016-04-19T01:36:00Z,0000380,01000600,0002.70,0001.75,0001.07,-000.52,0000.53,0000.11,0000.28,0000.06,-000.19,25.3,00.0,0653.8,34.7
2016-04-19T01:37:00Z,0000380,01000600,0002.74,0002.69,0001.75,-000.11,0000.26,0000.15,0000.13,0000.08,0000.00,25.2,00.0,0653.8,34.7
2016-04-19T01:38:00Z,0000380,01000600,0002.15,0001.85,0000.58,0000.29,0000.58,0000.06,-000.08,0000.00,0000.19,25.3,00.0,0653.8,34.7
2016-04-19T01:39:00Z,0000380,01000600,0002.03,0001.53,0000.97,-000.10,-000.45,-000.13,0000.36,0000.22,0000.32,25.3,00.0,0653.8,34.7
2016-04-19T01:40:00Z,0000380,01000600,0002.95,0002.11,0001.34,0000.13,-000.19,-000.26,-000.01,0000.08,0000.02,25.3,00.0,0653.8,34.7
2016-04-19T01:41:00Z,0000380,01000600,0003.88,0002.16,0001.22,0000.21,0000.11,0000.21,0000.19,0000.02,0000.01,25.3,00.0,0653.8,34.7
2016-04-19T01:42:00Z,0000380,01000600,0002.41,0001.24,0001.37,-000.14,0000.00,0000.19,0000.13,0000.13,0000.12,25.3,00.0,0653.8,34.7
2016-04-19T01:43:00Z,0000380,01000600,0003.07,0001.83,0001.66,-000.03,0000.13,0000.64,0000.32,0000.23,0000.11,25.3,00.0,0653.7,34.7
2016-04-19T01:44:00Z,0000380,01000600,0001.76,0002.01,0001.25,-000.52,-000.03,0000.16,-000.05,0000.08,-000.13,25.3,00.0,0653.7,34.7
2016-04-19T01:45:00Z,0000380,01000600,0003.29,0002.11,0001.39,-000.03,-000.32,0000.13,0000.13,0000.10,0000.13,25.3,00.0,0653.7,34.7
2016-04-19T01:46:00Z,0000380,01000600,0003.03,0001.94,0001.49,0000.50,0000.34,0000.24,0000.09,0000.12,0000.26,25.3,00.0,0653.8,34.7
2016-04-19T01:47:00Z,0000380,01000600,0002.24,0001.64,0000.98,0000.52,-000.34,-000.08,-000.07,0000.09,-000.20,25.3,00.0,0653.8,34.7
2016-04-19T01:48:00Z,0000380,01000600,0002.41,0001.84,0001.42,0000.24,-000.42,0000.29,0000.32,0000.08,0000.31,25.3,00.0,0653.7,34.7
2016-04-19T01:49:00Z,0000380,01000600,0002.72,0002.20,0000.83,0000.13,-000.11,-000.24,-000.03,0000.32,0000.02,25.3,00.0,0653.7,34.7
2016-04-19T01:50:00Z,0000380,01000600,0002.93,0001.83,0001.12,0000.35,0000.02,-000.08,0000.21,-000.01,0000.16,25.3,00.0,0653.7,34.7
2016-04-19T01:51:00Z,0000380,01000600,0002.30,0001.41,0001.60,0000.43,-000.27,0000.27,0000.16,0000.09,0000.03,25.3,00.0,0653.7,34.7
2016-04-19T01:52:00Z,0000380,01000600,0002.31,0001.04,0000.82,-000.11,0000.42,-000.03,0000.18,-000.05,0000.21,25.3,00.0,0653.7,34.7
2016-04-19T01:53:00Z,0000380,01000600,0001.72,0001.73,0001.82,-000.06,-000.37,0000.26,0000.17,0000.28,-000.22,25.3,00.0,0653.7,34.7
2016-04-19T01:54:00Z,0000380,01000600,0001.92,0002.10,0000.98,-000.69,-000.32,-000.18,-000.13,-000.09,-000.09,25.2,00.0,0653.7,34.7
2016-04-19T01:55:00Z,0000380,01000600,0001.82,0002.23,0000.93,0000.05,-000.08,0000.44,0000.02,0000.07,0000.26,25.3,00.0,0653.7,34.7
2016-04-19T01:56:00Z,0000380,01000600,0002.72,0000.82,0000.75,0000.14,-000.26,-000.32,0000.16,0000.14,-000.06,25.2,00.0,0653.7,34.7
2016-04-19T01:57:00Z,0000380,41000600,,,,,,,,,,,,0653.8,34.7
2016-04-19T01:58:00Z,0000380,61000600,,,,,,,,,,25.2,00.0,0652.9,34.7
2016-04-19T01:59:00Z,0000380,21000600,,,,,,,,,,25.2,00.0,0652.9,34.7
2016-04-19T02:00:00Z,0000380,21000600,,,,,,,,,,25.2,00.0,0652.9,34.6
2016-04-19T02:01:00Z,0000380,21000600,,,,,,,,,,25.2,00.0,0652.9,34.6
2016-04-19T02:02:00Z,0000380,21000600,,,,,,,,,,25.2,00.0,0652.9,34.6
2016-04-19T02:03:00Z,0000380,61000600,,,,,,,,,,25.2,00.0,0652.9,34.6
2016-04-19T02:04:00Z,0000380,41000600,0001.80,0001.81,0001.34,-000.05,0000.11,-000.05,-000.07,0000.13,-000.19,25.3,00.0,0653.6,34.6
2016-04-19T02:05:00Z,0000380,01000600,0001.66,0001.62,0001.19,-000.47,0000.34,0000.34,0000.33,0000.12,-000.03,25.2,00.0,0653.6,34.6
2016-04-19T02:06:00Z,0000380,01000600,0002.08,0001.29,0001.39,-000.56,0000.14,0000.16,-000.14,-000.02,0000.35,25.3,00.0,0653.6,34.6
2016-04-19T02:07:00Z,0000380,01000600,0001.09,0001.63,0001.80,-000.08,0000.22,0000.26,0000.23,0000.08,0000.07,25.3,00.0,0653.6,34.6
2016-04-19T02:08:00Z,0000380,01000600,0002.36,0002.10,0001.14,0000.05,0000.18,0000.11,0000.07,0000.05,-000.11,25.3,00.0,0653.6,34.6
2016-04-19T02:09:00Z,0000380,01000600,0002.90,0001.12,0001.07,0000.50,0000.00,0000.11,0000.18,0000.12,0000.10,25.2,00.0,0653.6,34.6
2016-04-19T02:10:00Z,0000380,01000600,0002.74,0001.19,0001.41,0000.40,-000.21,0000.18,0000.10,-000.02,-000.07,25.3,00.0,0653.6,34.6
2016-04-19T02:11:00Z,0000380,01000600,0002.78,0001.24,0001.42,0000.26,0000.72,0000.08,0000.00,0000.04,0000.22,25.2,00.0,0653.6,34.6
2016-04-19T02:12:00Z,0000380,01000600,0002.01,0001.21,0001.80,0000.03,-000.03,0000.03,0000.18,0000.22,0000.07,25.2,00.0,0653.6,34.6
2016-04-19T02:13:00Z,0000380,01000600,0001.62,0001.58,0001.47,0000.24,0000.03,0000.50,-000.23,0000.04,-000.06,25.3,00.0,0653.6,34.6
2016-04-19T02:14:00Z,0000380,01000600,0002.78,0001.62,0001.19,-000.50,0000.16,0000.45,0000.33,0000.12,0000.10,25.3,00.0,0653.6,34.6
2016-04-19T02:15:00Z,0000380,01000600,0002.27,0001.92,0001.42,0000.34,0000.08,0000.32,0000.18,0000.18,0000.11,25.3,00.0,0653.6,34.7
2016-04-19T02:16:00Z,0000380,01000600,-000.32,0002.18,0000.93,-000.14,-000.22,0000.21,-000.13,-000.03,0000.15,25.3,00.0,0653.6,34.7
2016-04-19T02:17:00Z,0000380,01000600,0001.34,0000.85,0001.67,-000.42,0000.55,0000.44,0000.30,0000.08,0000.04,25.2,00.0,0653.6,34.7
2016-04-19T02:18:00Z,0000380,01000600,0002.27,0001.86,0000.90,0000.35,0000.29,0000.24,0000.03,0000.03,-000.18,25.3,00.0,0653.6,34.7
2016-04-19T02:19:00Z,0000380,01000600,0001.79,0001.66,0001.60,0000.21,-000.27,-000.11,0000.00,0000.14,0000.28,25.3,00.0,0653.6,34.7
2016-04-19T02:20:00Z,0000380,01000600,0002.11,0001.97,0001.15,-000.26,0000.13,0000.48,0000.05,0000.02,-000.04,25.3,00.0,0653.6,34.7
2016-04-19T02:21:00Z,0000380,01000600,0001.70,0001.02,0001.19,-000.13,0000.99,0000.40,0000.03,0000.12,-000.00,25.3,00.0,0653.6,34.7
2016-04-19T02:22:00Z,0000380,01000600,0002.37,0001.93,0000.98,0000.11,0000.06,-000.21,0000.07,-000.05,0000.13,25.3,00.0,0653.6,34.7
2016-04-19T02:23:00Z,0000380,01000600,0000.67,0001.23,0001.37,-000.61,-000.18,0000.24,0000.26,0000.20,-000.01,25.3,00.0,0653.6,34.7
2016-04-19T02:24:00Z,0000380,01000600,0001.03,0001.29,0001.15,-000.13,-000.35,0000.24,0000.18,0000.05,0000.29,25.3,00.0,0653.6,34.7
2016-04-19T02:25:00Z,0000380,01000600,0001.13,0001.59,0001.03,0001.00,0000.32,0000.44,-000.09,0000.13,-000.27,25.3,00.0,0653.6,34.7
2016-04-19T02:26:00Z,0000380,01000600,0001.69,0002.37,0001.12,0000.03,0000.37,0000.37,0000.19,-000.00,0000.21,25.3,00.0,0653.6,34.7
2016-04-19T02:27:00Z,0000380,01000600,0000.97,0000.56,0000.90,0000.77,-000.34,0000.06,-000.05,0000.11,0000.19,25.3,00.0,0653.6,34.7
2016-04-19T02:28:00Z,0000380,01000600,0001.98,0001.63,0001.33,-000.02,-000.08,0000.47,0000.29,0000.04,0000.16,25.3,00.0,0653.6,34.7
2016-04-19T02:29:00Z,0000380,01000600,0001.36,0002.01,0000.98,0000.61,0000.37,-000.15,0000.10,0000.17,-000.10,25.3,00.0,0653.6,34.7
2016-04-19T02:30:00Z,0000380,01000600,0000.29,0001.02,0001.09,0000.42,0000.21,0000.24,0000.13,0000.09,0000.00,25.3,00.0,0653.6,34.7
2016-04-19T02:31:00Z,0000380,01000600,0001.78,0001.63,0001.08,-000.45,0000.21,-000.06,0000.04,0000.03,0000.04,25.3,00.0,0653.6,34.7
2016-04-19T02:32:00Z,0000380,01000600,0002.05,0002.07,0000.79,-000.02,0000.32,0000.53,-000.02,0000.17,0000.31,25.3,00.0,0653.6,34.7
2016-04-19T02:33:00Z,0000380,01000600,0001.61,0001.20,0000.60,0000.52,0000.22,-000.03,0000.21,0000.05,0000.15,25.3,00.0,0653.6,34.7
2016-04-19T02:34:00Z,0000380,01000600,0001.67,0001.04,0001.26,0000.14,0000.51,0000.39,0000.06,-000.10,-000.03,25.3,00.0,0653.6,34.7
2016-04-19T02:35:00Z,0000380,01000600,0001.58,0001.52,0001.17,0000.55,0000.05,0000.02,0000.18,0000.11,-000.14,25.3,00.0,0653.6,34.7
2016-04-19T02:36:00Z,0000380,01000600,0001.34,0001.85,0000.79,-000.23,0000.67,0000.45,-000.06,0000.05,-000.12,25.3,00.0,0653.6,34.7
2016-04-19T02:37:00Z,0000380,01000600,0002.42,0001.37,0001.33,0000.03,0000.21,0000.42,0000.08,0000.12,0000.24,25.3,00.0,0653.6,34.7
2016-04-19T02:38:00Z,0000380,01000600,0001.90,0001.16,0001.12,0000.40,0000.10,0000.19,0000.11,0000.26,0000.35,25.3,00.0,0653.6,34.7
2016-04-19T02:39:00Z,0000380,01000600,0000.48,0001.57,0001.59,-000.16,0000.40,0000.52,-000.08,-000.28,-000.60,25.3,00.0,0653.6,34.7
2016-04-19T02:40:00Z,0000380,01000600,0001.15,0001.63,0001.13,0000.05,-000.10,0000.06,0000.22,0000.26,0000.22,25.3,00.0,0653.6,34.7
2016-04-19T02:41:00Z,0000380,01000600,0000.31,0001.04,0001.67,0000.39,0000.63,0000.29,0000.09,-000.01,0000.30,25.3,00.0,0653.6,34.7
2016-04-19T02:42:00Z,0000380,01000600,0001.90,0001.05,0001.01,0000.85,0000.34,0000.26,0000.15,0000.21,0000.22,25.3,00.0,0653.6,34.7
2016-04-19T02:43:00Z,0000380,01000600,0001.35,0001.80,0000.95,-000.26,-000.08,0000.48,0000.16,0000.19,0000.06,25.3,00.0,0653.6,34.7
2016-04-19T02:44:00Z,0000380,01000600,0001.52,0001.40,0001.48,0000.31,0000.05,0000.11,0000.10,0000.03,-000.08,25.3,00.0,0653.6,34.7
2016-04-19T02:45:00Z,0000380,01000600,0001.29,0001.17,0001.38,-000.11,-000.42,0000.00,-000.06,0000.06,-000.06,25.2,00.0,0653.6,34.6
2016-04-19T02:46:00Z,0000380,01000600,0002.32,0000.72,0002.25,0000.48,-000.29,0000.53,0000.17,-000.03,0000.02,25.2,00.0,0653.6,34.6
2016-04-19T02:47:00Z,0000380,01000600,0001.67,0000.99,0001.69,-000.19,0000.30,0000.48,0000.08,0000.28,0000.38,25.2,00.0,0653.6,34.6
2016-04-19T02:48:00Z,0000380,01000600,0001.25,0001.93,0000.92,-000.43,-000.18,-000.24,0000.13,-000.23,-000.21,25.2,00.0,0653.6,34.6
2016-04-19T02:49:00Z,0000380,01000600,0002.24,0000.59,0001.12,0000.58,-000.56,0000.19,0000.00,0000.19,-000.02,25.2,00.0,0653.6,34.6
2016-04-19T02:50:00Z,0000380,01000600,0001.89,0001.16,0001.49,0000.63,-000.02,0000.10,-000.09,0000.03,0000.18,25.2,00.0,0653.6,34.6
2016-04-19T02:51:00Z,0000380,01000600,0001.82,0001.15,0001.26,-000.24,0000.05,0000.16,0000.21,0000.02,-000.02,25.2,00.0,0653.6,34.6
2016-04-19T02:52:00Z,0000380,01000600,0001.67,0001.44,0002.17,0000.81,0000.18,0000.61,0000.04,0000.09,0000.25,25.2,00.0,0653.6,34.6
2016-04-19T02:53:00Z,0000380,01000600,0000.58,0001.67,0001.15,-000.26,-000.11,0000.26,-000.05,0000.03,-000.30,25.2,00.0,0653.6,34.6
2016-04-19T02:54:00Z,0000380,01000600,0001.56,0001.28,0001.16,0000.13,0000.02,0000.37,-000.04,0000.01,0000.14,25.2,00.0,0653.6,34.6
2016-04-19T02:55:00Z,0000380,01000600,0000.75,0002.69,0000.69,-000.55,0000.35,0000.21,0000.36,0000.27,0000.03,25.2,00.0,0653.6,34.6
2016-04-19T02:56:00Z,0000380,01000600,0001.58,0000.78,0001.55,-000.18,0000.08,0000.19,-000.21,-000.22,0000.04,25.2,00.0,0653.6,34.6
2016-04-19T02:57:00Z,0000380,41000600,,,,,,,,,,,,0653.5,34.6
2016-04-19T02:58:00Z,0000380,61000600,,,,,,,,,,25.0,00.0,0652.8,34.6
2016-04-19T02:59:00Z,0000380,21000600,,,,,,,,,,25.0,00.0,0652.8,34.6
2016-04-19T03:00:00Z,0000380,21000600,,,,,,,,,,25.0,00.0,0652.8,34.6
2016-04-19T03:01:00Z,0000380,21000600,,,,,,,,,,25.0,00.0,0652.8,34.6
2016-04-19T03:02:00Z,0000380,21000600,,,,,,,,,,25.0,00.0,0652.8,34.6
2016-04-19T03:03:00Z,0000380,61000600,,,,,,,,,,25.0,00.0,0652.8,34.6
2016-04-19T03:04:00Z,0000380,41000600,0000.90,0000.67,0000.66,-000.14,0000.13,-000.56,0000.03,-000.01,0000.07,25.0,00.0,0653.5,34.6
2016-04-19T03:05:00Z,0000380,01000600,0001.88,0000.73,0000.86,0000.48,-000.06,-000.31,0000.29,0000.06,0000.24,25.0,00.0,0653.5,34.6
2016-04-19T03:06:00Z,0000380,01000600,0001.30,0001.13,0001.18,0000.35,0000.14,0000.18,0000.09,0000.13,0000.07,25.0,00.0,0653.5,34.6
2016-04-19T03:07:00Z,0000380,01000600,0002.33,0001.66,0000.85,0000.69,0000.32,0000.19,-000.11,0000.05,-000.24,25.1,00.0,0653.5,34.6
2016-04-19T03:08:00Z,0000380,01000600,0001.72,0001.92,0000.80,0000.43,-000.27,0000.32,0000.10,0000.01,0000.09,25.0,00.0,0653.5,34.6
2016-04-19T03:09:00Z,0000380,01000600,0001.34,0000.76,0000.82,0000.18,-000.22,0000.18,0000.25,0000.09,0000.23,25.0,00.0,0653.5,34.6
2016-04-19T03:10:00Z,0000380,01000600,0002.43,0000.60,0000.61,0000.50,-000.13,0000.11,-000.13,0000.25,0000.00,25.0,00.0,0653.5,34.6
2016-04-19T03:11:00Z,0000380,01000600,0000.96,0000.56,0000.69,0000.48,0000.11,-000.10,0000.04,-000.10,-000.34,25.0,00.0,0653.5,34.6
2016-04-19T03:12:00Z,0000380,01000600,0001.03,0000.64,0000.83,0000.05,-000.08,0000.05,0000.10,0000.15,0000.16,25.0,00.0,0653.5,34.6